FW5356 Weather Reports


time (UTC)temp
C
wind
direction
speed
KPH
gust
KPH
rain 1hr
cm
rain 24hr
cm
rain mn
cm
humidity
%
barometer
mb
20260507164530 13 338 0.0 0.0 0.00 0.61 0.00 48 1011.5
20260507163028 13 321 0.0 0.0 0.00 0.61 0.00 50 1011.4
20260507161534 13 292 0.0 0.0 0.00 0.61 0.00 46 1011.7
20260507160026 12 43 0.0 0.0 0.00 0.61 0.00 47 1011.6
20260507154531 12 325 0.0 0.0 0.00 0.61 0.00 48 1011.7
20260507153035 12 345 0.0 0.0 0.00 0.61 0.00 55 1012.0
20260507151521 12 310 0.0 0.0 0.00 0.61 0.00 55 1012.3
20260507150018 12 32 0.0 0.0 0.00 0.61 0.00 63 1012.2
20260507144517 11 355 0.0 0.0 0.00 0.61 0.00 67 1012.1
20260507143022 11 286 0.0 0.0 0.00 0.61 0.00 69 1012.0
20260507141515 11 293 0.0 0.0 0.00 0.61 0.00 72 1011.9
20260507140013 11 303 0.0 8.0 0.00 0.61 0.00 77 1012.1
20260507134513 10 38 0.0 4.8 0.00 0.61 0.00 73 1012.2
20260507133012 11 61 9.7 19.3 0.00 0.61 0.00 72 1012.2
20260507131517 11 327 0.0 0.0 0.00 0.61 0.00 72 1012.3
20260507130012 10 342 0.0 0.0 0.00 0.61 0.00 78 1012.4
20260507124503 9 13 0.0 0.0 0.00 0.61 0.00 78 1012.3
20260507123100 9 330 0.0 0.0 0.00 0.61 0.00 80 1012.1
20260507121558 8 360 0.0 0.0 0.00 0.61 0.00 83 1012.5
20260507120057 8 14 0.0 0.0 0.00 0.61 0.00 84 1012.6
20260507114558 7 39 0.0 8.0 0.00 0.61 0.00 87 1012.5
20260507113059 7 53 1.6 9.7 0.00 0.61 0.00 90 1012.2
20260507111554 6 12 0.0 6.4 0.00 0.61 0.00 91 1012.3
20260507110053 6 330 1.6 8.0 0.00 0.61 0.00 92 1012.2
20260507104552 6 26 0.0 6.4 0.00 0.61 0.00 91 1011.7
20260507103049 6 348 0.0 8.0 0.00 0.61 0.00 90 1011.8
20260507101554 6 13 0.0 6.4 0.00 0.61 0.00 90 1011.9
20260507100049 6 36 3.2 12.9 0.00 0.61 0.00 90 1011.4
20260507094548 6 340 4.8 16.1 0.00 0.61 0.00 90 1011.5
20260507093052 6 40 4.8 8.0 0.00 0.61 0.00 91 1011.9
20260507091545 6 313 0.0 8.0 0.00 0.61 0.00 91 1011.9
20260507090044 6 287 0.0 9.7 0.00 0.61 0.00 90 1012.2
20260507084546 7 307 1.6 11.3 0.00 0.61 0.00 90 1011.5
20260507083040 7 331 0.0 14.5 0.00 0.61 0.00 89 1011.3
20260507081538 7 348 3.2 12.9 0.00 0.61 0.00 90 1011.6
20260507080040 7 332 3.2 12.9 0.00 0.61 0.00 90 1011.1
20260507074536 7 300 3.2 14.5 0.00 0.61 0.00 90 1011.6
20260507073033 7 259 1.6 19.3 0.00 0.61 0.00 90 1011.0
20260507071558 7 32 4.8 12.9 0.00 0.61 0.00 90 1010.9
20260507070032 7 334 3.2 19.3 0.00 0.61 0.00 90 1010.9
20260507064530 7 44 3.2 19.3 0.00 0.61 0.00 91 1010.8
20260507063025 7 36 8.0 24.1 0.00 0.61 0.00 91 1010.9
20260507061525 7 327 6.4 17.7 0.00 0.61 0.00 92 1011.1
20260507060023 7 335 6.4 17.7 0.00 0.61 0.00 92 1010.7
20260507054521 7 298 3.2 12.9 0.00 0.61 0.00 92 1011.1
20260507053021 7 281 3.2 19.3 0.00 0.61 0.00 93 1011.2
20260507051528 7 298 8.0 16.1 0.00 0.61 0.00 93 1011.0
20260507050019 7 259 3.2 9.7 0.00 0.61 0.00 93 1011.0
20260507044515 7 36 1.6 19.3 0.00 0.61 0.00 93 1010.8
20260507043014 8 22 4.8 19.3 0.00 0.61 0.00 93 1010.7
20260507041509 8 360 6.4 19.3 0.00 0.61 0.00 94 1011.1
20260507040006 8 360 6.4 17.7 0.03 0.61 0.61 94 1010.9
20260507034507 9 13 4.8 17.7 0.13 0.61 0.61 94 1010.6
20260507033010 9 360 4.8 16.1 0.15 0.61 0.61 94 1010.6
20260507031502 9 34 9.7 24.1 0.20 0.61 0.61 94 1010.5
20260507030059 10 360 6.4 22.5 0.18 0.58 0.58 94 1010.6
20260507024603 10 360 3.2 20.9 0.10 0.48 0.48 94 1010.6
20260507023051 11 360 11.3 25.7 0.15 0.46 0.46 94 1010.1
20260507021547 12 346 4.8 22.5 0.20 0.41 0.41 95 1010.0
20260507020045 12 30 0.0 6.4 0.20 0.41 0.41 95 1009.8
20260507014550 13 13 3.2 20.9 0.18 0.38 0.38 95 1009.5
20260507013041 14 313 1.6 11.3 0.10 0.30 0.30 96 1009.3
20260507011541 14 242 4.8 11.3 0.00 0.20 0.20 96 1009.1
20260507010039 13 205 4.8 11.3 0.00 0.20 0.20 96 1009.1
20260507004540 13 198 6.4 12.9 0.00 0.20 0.20 96 1008.9
20260507003035 13 208 6.4 14.5 0.00 0.20 0.20 95 1008.8
20260507001546 13 226 0.0 0.0 0.00 0.20 0.20 95 1008.7
20260507000036 14 207 0.0 0.0 0.00 0.20 0.20 95 1008.7
20260506234534 14 176 0.0 0.0 0.00 0.20 0.20 95 1008.4
20260506233034 14 213 0.0 0.0 0.00 0.20 0.20 95 1008.4
20260506231531 14 203 0.0 0.0 0.00 0.20 0.20 95 1008.6
20260506230030 14 223 0.0 0.0 0.00 0.20 0.20 95 1008.5
20260506224530 14 252 0.0 0.0 0.00 0.20 0.20 95 1008.6
20260506223027 14 251 0.0 0.0 0.00 0.20 0.20 95 1008.7
20260506221526 14 182 0.0 0.0 0.00 0.20 0.20 95 1008.7
20260506220036 14 226 0.0 0.0 0.00 0.20 0.20 94 1008.8
20260506214527 14 199 0.0 0.0 0.03 0.20 0.20 94 1008.8
20260506213029 15 196 0.0 0.0 0.03 0.20 0.20 94 1008.7
20260506211522 15 192 0.0 0.0 0.05 0.20 0.20 94 1008.9
20260506210023 15 197 0.0 0.0 0.05 0.20 0.20 94 1008.9
20260506204520 15 193 0.0 0.0 0.05 0.18 0.18 93 1009.0
20260506203021 15 196 0.0 0.0 0.05 0.18 0.18 93 1009.0
20260506201517 15 209 0.0 0.0 0.03 0.15 0.15 93 1009.3
20260506200020 15 202 0.0 0.0 0.03 0.15 0.15 92 1009.3
20260506194515 15 213 0.0 0.0 0.03 0.13 0.13 91 1009.5
20260506193014 15 250 0.0 0.0 0.03 0.13 0.13 91 1009.8
20260506191514 15 213 0.0 0.0 0.03 0.13 0.13 91 1009.3
20260506190020 15 182 0.0 0.0 0.05 0.13 0.13 91 1009.4
20260506184516 15 183 0.0 0.0 0.08 0.10 0.10 91 1010.0
20260506183007 15 217 0.0 0.0 0.10 0.10 0.10 91 1010.2
20260506181506 15 303 0.0 0.0 0.08 0.08 0.08 90 1010.5
20260506180008 16 240 0.0 0.0 0.05 0.05 0.05 87 1010.7
20260506174505 16 269 0.0 0.0 0.03 0.03 0.03 84 1010.8
20260506173003 17 246 8.0 25.7 0.00 0.00 0.00 78 1010.8
20260506171502 18 221 0.0 0.0 0.00 0.00 0.00 71 1010.6
20260506170001 19 208 6.4 24.1 0.00 0.00 0.00 69 1010.3